Time,TemperatureF,DewpointF,PressureIn,WindDirection,WindDirectionDegrees,WindSpeedMPH,WindSpeedGustMPH,Humidity,HourlyPrecipIn,Conditions,Clouds,dailyrainin,SoftwareType,DateUTC
2013-05-17 00:02:00,65.3,57.2,29.41,SSW,197,0.0,0.0,75,0.00,,,0.00,Wunderground v.1.15,2013-05-17 05:02:00,
2013-05-17 00:07:00,65.2,56.7,29.41,SSW,197,0.0,3.0,74,0.00,,,0.00,Wunderground v.1.15,2013-05-17 05:07:00,
2013-05-17 00:12:00,65.0,56.5,29.41,SSW,197,0.0,0.0,74,0.00,,,0.00,Wunderground v.1.15,2013-05-17 05:12:00,
2013-05-17 00:18:00,64.9,56.8,29.41,SSW,197,0.0,1.0,75,0.00,,,0.00,Wunderground v.1.15,2013-05-17 05:18:00,
2013-05-17 00:23:00,64.7,56.6,29.40,SSW,197,0.0,0.0,75,0.00,,,0.00,Wunderground v.1.15,2013-05-17 05:23:00,
2013-05-17 00:28:00,64.5,56.8,29.41,SSW,197,0.0,2.0,76,0.00,,,0.00,Wunderground v.1.15,2013-05-17 05:28:00,
2013-05-17 00:33:00,64.4,56.3,29.41,SSW,197,0.0,3.0,75,0.00,,,0.00,Wunderground v.1.15,2013-05-17 05:33:00,
2013-05-17 00:39:00,64.5,56.4,29.41,SSW,197,0.0,3.0,75,0.00,,,0.00,Wunderground v.1.15,2013-05-17 05:39:00,
2013-05-17 00:44:00,64.3,56.2,29.41,SSW,197,0.0,3.0,75,0.00,,,0.00,Wunderground v.1.15,2013-05-17 05:44:00,
2013-05-17 00:49:00,64.2,56.1,29.41,SSW,197,1.0,3.0,75,0.00,,,0.00,Wunderground v.1.15,2013-05-17 05:49:00,
2013-05-17 00:55:00,64.1,55.6,29.41,SSW,197,0.0,0.0,74,0.00,,,0.00,Wunderground v.1.15,2013-05-17 05:55:00,
2013-05-17 01:00:00,64.3,-99.9,29.41,SSW,197,0.0,0.0,255,0.00,,,0.00,Wunderground v.1.15,2013-05-17 06:00:00,
2013-05-17 01:06:00,63.8,55.4,29.42,SSW,197,0.0,0.0,74,0.00,,,0.00,Wunderground v.1.15,2013-05-17 06:06:00,
2013-05-17 01:11:00,63.7,55.3,29.42,SSW,197,0.0,1.0,74,0.00,,,0.00,Wunderground v.1.15,2013-05-17 06:11:00,
2013-05-17 01:16:00,63.6,55.2,29.42,SSW,197,0.0,1.0,74,0.00,,,0.00,Wunderground v.1.15,2013-05-17 06:16:00,
2013-05-17 01:22:00,63.4,55.3,29.42,SSW,197,0.0,2.0,75,0.00,,,0.00,Wunderground v.1.15,2013-05-17 06:22:00,
2013-05-17 01:28:00,63.1,55.4,29.42,SSW,197,0.0,2.0,76,0.00,,,0.00,Wunderground v.1.15,2013-05-17 06:28:00,
2013-05-17 01:33:00,62.9,55.2,29.42,SSW,197,0.0,0.0,76,0.00,,,0.00,Wunderground v.1.15,2013-05-17 06:33:00,
2013-05-17 01:38:00,62.8,55.1,29.42,SSW,197,0.0,0.0,76,0.00,,,0.00,Wunderground v.1.15,2013-05-17 06:38:00,
2013-05-17 01:44:00,62.6,54.9,29.41,SSW,197,0.0,1.0,76,0.00,,,0.00,Wunderground v.1.15,2013-05-17 06:44:00,
2013-05-17 01:49:00,62.4,54.7,29.41,SSW,197,0.0,1.0,76,0.00,,,0.00,Wunderground v.1.15,2013-05-17 06:49:00,
2013-05-17 01:55:00,62.3,54.6,29.41,SSW,197,0.0,0.0,76,0.00,,,0.00,Wunderground v.1.15,2013-05-17 06:55:00,
2013-05-17 02:00:00,62.3,54.6,29.41,SSW,197,0.0,0.0,76,0.00,,,0.00,Wunderground v.1.15,2013-05-17 07:00:00,
2013-05-17 02:05:00,62.2,54.5,29.41,SSW,197,0.0,1.0,76,0.00,,,0.00,Wunderground v.1.15,2013-05-17 07:05:00,
2013-05-17 02:10:00,62.1,54.4,29.41,SSW,197,0.0,0.0,76,0.00,,,0.00,Wunderground v.1.15,2013-05-17 07:10:00,
2013-05-17 02:15:00,62.0,54.3,29.41,SSW,197,0.0,1.0,76,0.00,,,0.00,Wunderground v.1.15,2013-05-17 07:15:00,
2013-05-17 02:20:00,61.9,54.2,29.42,SSW,197,0.0,0.0,76,0.00,,,0.00,Wunderground v.1.15,2013-05-17 07:20:00,
2013-05-17 02:25:00,61.8,54.5,29.42,SSW,197,0.0,1.0,77,0.00,,,0.00,Wunderground v.1.15,2013-05-17 07:25:00,
2013-05-17 02:30:00,61.8,54.2,29.42,SSW,197,0.0,0.0,76,0.00,,,0.00,Wunderground v.1.15,2013-05-17 07:30:00,
2013-05-17 02:35:00,61.8,54.2,29.41,SSW,197,0.0,1.0,76,0.00,,,0.00,Wunderground v.1.15,2013-05-17 07:35:00,
2013-05-17 02:40:00,61.8,54.5,29.41,SSW,197,0.0,0.0,77,0.00,,,0.00,Wunderground v.1.15,2013-05-17 07:40:00,
2013-05-17 02:45:00,61.7,54.8,29.41,SSW,197,0.0,0.0,78,0.00,,,0.00,Wunderground v.1.15,2013-05-17 07:45:00,
2013-05-17 02:50:00,61.6,54.7,29.41,SSW,197,0.0,0.0,78,0.00,,,0.00,Wunderground v.1.15,2013-05-17 07:50:00,
2013-05-17 02:55:00,61.4,54.1,29.41,SSW,197,0.0,0.0,77,0.00,,,0.00,Wunderground v.1.15,2013-05-17 07:55:00,
2013-05-17 03:00:00,61.3,54.0,29.41,SSW,197,0.0,0.0,77,0.00,,,0.00,Wunderground v.1.15,2013-05-17 08:00:00,
2013-05-17 03:05:00,61.1,53.5,29.41,SSW,197,0.0,0.0,76,0.00,,,0.00,Wunderground v.1.15,2013-05-17 08:05:00,
2013-05-17 03:10:00,60.9,53.6,29.41,SSW,197,0.0,0.0,77,0.00,,,0.00,Wunderground v.1.15,2013-05-17 08:10:00,
2013-05-17 03:15:00,60.7,53.8,29.41,SSW,197,0.0,0.0,78,0.00,,,0.00,Wunderground v.1.15,2013-05-17 08:15:00,
2013-05-17 03:20:00,60.5,54.0,29.41,SSW,197,0.0,0.0,79,0.00,,,0.00,Wunderground v.1.15,2013-05-17 08:20:00,
2013-05-17 03:25:00,60.3,53.8,29.41,SSW,197,0.0,0.0,79,0.00,,,0.00,Wunderground v.1.15,2013-05-17 08:25:00,
2013-05-17 03:32:00,60.2,53.7,29.41,SSW,197,0.0,0.0,79,0.00,,,0.00,Wunderground v.1.15,2013-05-17 08:32:00,
2013-05-17 03:36:00,60.2,54.3,29.41,SSW,197,0.0,0.0,81,0.00,,,0.00,Wunderground v.1.15,2013-05-17 08:36:00,
2013-05-17 03:42:00,60.1,54.2,29.41,SSW,197,0.0,0.0,81,0.00,,,0.00,Wunderground v.1.15,2013-05-17 08:42:00,
2013-05-17 03:46:00,60.0,54.2,29.41,SSW,197,0.0,0.0,81,0.00,,,0.00,Wunderground v.1.15,2013-05-17 08:46:00,
2013-05-17 03:51:00,60.0,54.2,29.42,SSW,197,0.0,0.0,81,0.00,,,0.00,Wunderground v.1.15,2013-05-17 08:51:00,
2013-05-17 03:56:00,59.7,54.5,29.42,SSW,197,0.0,0.0,83,0.00,,,0.00,Wunderground v.1.15,2013-05-17 08:56:00,
2013-05-17 04:02:00,59.5,54.3,29.42,SSW,197,0.0,0.0,83,0.00,,,0.00,Wunderground v.1.15,2013-05-17 09:02:00,
2013-05-17 04:07:00,59.5,54.7,29.42,SSW,197,0.0,0.0,84,0.00,,,0.00,Wunderground v.1.15,2013-05-17 09:07:00,
2013-05-17 04:12:00,59.5,54.7,29.42,SSW,197,0.0,0.0,84,0.00,,,0.00,Wunderground v.1.15,2013-05-17 09:12:00,
2013-05-17 04:17:00,59.6,55.1,29.42,SSW,197,0.0,0.0,85,0.00,,,0.00,Wunderground v.1.15,2013-05-17 09:17:00,
2013-05-17 04:22:00,59.7,55.2,29.41,SSW,197,0.0,0.0,85,0.00,,,0.00,Wunderground v.1.15,2013-05-17 09:22:00,
2013-05-17 04:27:00,59.8,55.3,29.41,SSW,197,0.0,0.0,85,0.00,,,0.00,Wunderground v.1.15,2013-05-17 09:27:00,
2013-05-17 04:32:00,59.9,54.7,29.41,SSW,197,0.0,0.0,83,0.00,,,0.00,Wunderground v.1.15,2013-05-17 09:32:00,
2013-05-17 04:37:00,59.9,54.7,29.41,SSW,197,0.0,0.0,83,0.00,,,0.00,Wunderground v.1.15,2013-05-17 09:37:00,
2013-05-17 04:42:00,60.0,54.8,29.41,SSW,197,0.0,0.0,83,0.00,,,0.00,Wunderground v.1.15,2013-05-17 09:42:00,
2013-05-17 04:47:00,60.3,54.8,29.41,SSW,197,0.0,0.0,82,0.00,,,0.00,Wunderground v.1.15,2013-05-17 09:47:00,
2013-05-17 04:52:00,60.4,54.5,29.41,SSW,197,0.0,0.0,81,0.00,,,0.00,Wunderground v.1.15,2013-05-17 09:52:00,
2013-05-17 04:57:00,60.6,54.4,29.41,SSW,197,0.0,0.0,80,0.00,,,0.00,Wunderground v.1.15,2013-05-17 09:57:00,
2013-05-17 05:02:00,60.8,54.2,29.41,SSW,197,0.0,0.0,79,0.00,,,0.00,Wunderground v.1.15,2013-05-17 10:02:00,
2013-05-17 05:07:00,60.9,54.3,29.41,SSW,197,0.0,0.0,79,0.00,,,0.00,Wunderground v.1.15,2013-05-17 10:07:00,
2013-05-17 05:12:00,61.1,54.5,29.42,SSW,197,0.0,0.0,79,0.00,,,0.00,Wunderground v.1.15,2013-05-17 10:12:00,
2013-05-17 05:17:00,61.2,54.6,29.41,SSW,197,0.0,0.0,79,0.00,,,0.00,Wunderground v.1.15,2013-05-17 10:17:00,
2013-05-17 05:22:00,61.3,55.1,29.42,SSW,197,0.0,0.0,80,0.00,,,0.00,Wunderground v.1.15,2013-05-17 10:22:00,
2013-05-17 05:27:00,61.4,55.2,29.42,SSW,197,0.0,0.0,80,0.00,,,0.00,Wunderground v.1.15,2013-05-17 10:27:00,
2013-05-17 05:32:00,61.5,55.6,29.42,SSW,197,0.0,0.0,81,0.00,,,0.00,Wunderground v.1.15,2013-05-17 10:32:00,
2013-05-17 05:37:00,61.6,55.7,29.43,SSW,197,0.0,0.0,81,0.00,,,0.00,Wunderground v.1.15,2013-05-17 10:37:00,
2013-05-17 05:42:00,61.6,56.4,29.43,SSW,197,0.0,0.0,83,0.00,,,0.00,Wunderground v.1.15,2013-05-17 10:42:00,
2013-05-17 05:47:00,62.0,57.1,29.42,SSW,197,0.0,0.0,84,0.00,,,0.00,Wunderground v.1.15,2013-05-17 10:47:00,
2013-05-17 05:52:00,61.4,56.5,29.42,SSW,197,0.0,0.0,84,0.00,,,0.00,Wunderground v.1.15,2013-05-17 10:52:00,
2013-05-17 05:57:00,61.5,56.6,29.43,SSW,197,0.0,0.0,84,0.00,,,0.00,Wunderground v.1.15,2013-05-17 10:57:00,
2013-05-17 06:02:00,61.6,57.0,29.43,SSW,197,0.0,0.0,85,0.00,,,0.00,Wunderground v.1.15,2013-05-17 11:02:00,
2013-05-17 06:07:00,61.7,57.1,29.43,SSW,197,0.0,0.0,85,0.00,,,0.00,Wunderground v.1.15,2013-05-17 11:07:00,
2013-05-17 06:12:00,61.8,57.2,29.43,SSW,197,0.0,0.0,85,0.00,,,0.00,Wunderground v.1.15,2013-05-17 11:12:00,
2013-05-17 06:17:00,61.9,57.0,29.43,SSW,197,0.0,0.0,84,0.00,,,0.00,Wunderground v.1.15,2013-05-17 11:17:00,
2013-05-17 06:22:00,62.0,57.1,29.44,SSW,197,0.0,0.0,84,0.00,,,0.00,Wunderground v.1.15,2013-05-17 11:22:00,
2013-05-17 06:27:00,62.1,57.2,29.44,SSW,197,0.0,0.0,84,0.00,,,0.00,Wunderground v.1.15,2013-05-17 11:27:00,
2013-05-17 06:33:00,62.1,57.2,29.44,SSW,197,0.0,0.0,84,0.00,,,0.00,Wunderground v.1.15,2013-05-17 11:33:00,
2013-05-17 06:38:00,62.1,56.9,29.44,SSW,197,0.0,0.0,83,0.00,,,0.00,Wunderground v.1.15,2013-05-17 11:38:00,
2013-05-17 06:43:00,62.2,57.0,29.44,SSW,197,0.0,0.0,83,0.00,,,0.00,Wunderground v.1.15,2013-05-17 11:43:00,
2013-05-17 06:48:00,62.3,57.4,29.44,SSW,197,0.0,0.0,84,0.00,,,0.00,Wunderground v.1.15,2013-05-17 11:48:00,
2013-05-17 06:53:00,62.3,57.4,29.44,SSW,197,0.0,0.0,84,0.00,,,0.00,Wunderground v.1.15,2013-05-17 11:53:00,
2013-05-17 06:58:00,62.3,57.7,29.45,SSW,197,0.0,0.0,85,0.00,,,0.00,Wunderground v.1.15,2013-05-17 11:58:00,
2013-05-17 07:03:00,62.3,57.4,29.45,SSW,197,0.0,0.0,84,0.00,,,0.00,Wunderground v.1.15,2013-05-17 12:03:00,
2013-05-17 07:08:00,62.2,57.3,29.45,SSW,197,0.0,2.0,84,0.00,,,0.00,Wunderground v.1.15,2013-05-17 12:08:00,
2013-05-17 07:14:00,62.4,57.5,29.45,SSW,197,0.0,1.0,84,0.00,,,0.00,Wunderground v.1.15,2013-05-17 12:14:00,
2013-05-17 07:19:00,62.5,57.3,29.45,SSW,197,0.0,4.0,83,0.00,,,0.00,Wunderground v.1.15,2013-05-17 12:19:00,
2013-05-17 07:24:00,62.7,57.5,29.45,SSW,197,0.0,0.0,83,0.00,,,0.00,Wunderground v.1.15,2013-05-17 12:24:00,
2013-05-17 07:28:00,62.8,57.6,29.45,SSW,197,0.0,0.0,83,0.00,,,0.00,Wunderground v.1.15,2013-05-17 12:28:00,
2013-05-17 07:38:00,63.2,57.9,29.45,SSW,197,1.0,3.0,83,0.00,,,0.00,Wunderground v.1.15,2013-05-17 12:38:00,
2013-05-17 07:43:00,63.5,58.6,29.45,SSW,197,0.0,2.0,84,0.00,,,0.00,Wunderground v.1.15,2013-05-17 12:43:00,
2013-05-17 07:48:00,63.7,58.8,29.45,SSW,197,0.0,5.0,84,0.00,,,0.00,Wunderground v.1.15,2013-05-17 12:48:00,
2013-05-17 07:53:00,-999.9,-99.9,29.45,SSW,196,0.0,0.0,83,0.00,,,0.00,Wunderground v.1.15,2013-05-17 12:53:00,
2013-05-17 07:58:00,64.3,59.0,29.45,SSW,197,0.0,1.0,83,0.00,,,0.00,Wunderground v.1.15,2013-05-17 12:58:00,
2013-05-17 08:03:00,64.5,58.9,29.45,SSW,197,2.0,4.0,82,0.00,,,0.00,Wunderground v.1.15,2013-05-17 13:03:00,
2013-05-17 08:08:00,64.8,59.2,29.45,SSW,197,0.0,5.0,82,0.00,,,0.00,Wunderground v.1.15,2013-05-17 13:08:00,
2013-05-17 08:13:00,65.1,59.5,29.45,SSW,197,0.0,2.0,82,0.00,,,0.00,Wunderground v.1.15,2013-05-17 13:13:00,
2013-05-17 08:18:00,65.3,59.3,29.45,SSW,197,0.0,3.0,81,0.00,,,0.00,Wunderground v.1.15,2013-05-17 13:18:00,
2013-05-17 08:23:00,65.5,59.5,29.45,SSW,197,0.0,3.0,81,0.00,,,0.00,Wunderground v.1.15,2013-05-17 13:23:00,
2013-05-17 08:28:00,65.9,59.2,29.46,SSW,197,0.0,5.0,79,0.00,,,0.00,Wunderground v.1.15,2013-05-17 13:28:00,
2013-05-17 08:33:00,66.5,59.8,29.46,SSW,197,0.0,7.0,79,0.00,,,0.00,Wunderground v.1.15,2013-05-17 13:33:00,
2013-05-17 08:38:00,67.1,60.4,29.46,SSW,196,0.0,7.0,79,0.00,,,0.00,Wunderground v.1.15,2013-05-17 13:38:00,
2013-05-17 08:43:00,67.7,60.2,29.46,SSW,196,0.0,2.0,77,0.00,,,0.00,Wunderground v.1.15,2013-05-17 13:43:00,
2013-05-17 08:48:00,68.2,61.1,29.46,SSW,193,5.0,7.0,78,0.00,,,0.00,Wunderground v.1.15,2013-05-17 13:48:00,
2013-05-17 08:53:00,68.7,61.2,29.46,South,183,4.0,5.0,77,0.00,,,0.00,Wunderground v.1.15,2013-05-17 13:53:00,
2013-05-17 08:58:00,69.1,61.2,29.46,South,180,0.0,8.0,76,0.00,,,0.00,Wunderground v.1.15,2013-05-17 13:58:00,
2013-05-17 09:03:00,69.6,61.7,29.46,South,180,0.0,3.0,76,0.00,,,0.00,Wunderground v.1.15,2013-05-17 14:03:00,
2013-05-17 09:08:00,70.2,61.9,29.46,South,180,0.0,5.0,75,0.00,,,0.00,Wunderground v.1.15,2013-05-17 14:08:00,
2013-05-17 09:13:00,70.4,61.7,29.45,South,180,0.0,5.0,74,0.00,,,0.00,Wunderground v.1.15,2013-05-17 14:13:00,
2013-05-17 09:18:00,70.6,61.5,29.45,South,180,3.0,5.0,73,0.00,,,0.00,Wunderground v.1.15,2013-05-17 14:18:00,
2013-05-17 09:23:00,70.5,61.8,29.45,South,180,0.0,2.0,74,0.00,,,0.00,Wunderground v.1.15,2013-05-17 14:23:00,
2013-05-17 09:28:00,70.8,62.1,29.46,South,180,0.0,6.0,74,0.00,,,0.00,Wunderground v.1.15,2013-05-17 14:28:00,
2013-05-17 09:33:00,70.7,62.0,29.45,South,180,0.0,2.0,74,0.00,,,0.00,Wunderground v.1.15,2013-05-17 14:33:00,
2013-05-17 09:38:00,70.6,61.9,29.45,South,180,0.0,2.0,74,0.00,,,0.00,Wunderground v.1.15,2013-05-17 14:38:00,
2013-05-17 09:43:00,70.8,61.3,29.45,South,180,0.0,3.0,72,0.00,,,0.00,Wunderground v.1.15,2013-05-17 14:43:00,
2013-05-17 09:48:00,71.1,62.0,29.45,South,180,0.0,5.0,73,0.00,,,0.00,Wunderground v.1.15,2013-05-17 14:48:00,
2013-05-17 09:53:00,71.3,61.8,29.45,South,180,0.0,5.0,72,0.00,,,0.00,Wunderground v.1.15,2013-05-17 14:53:00,
2013-05-17 09:58:00,71.3,62.2,29.45,South,180,0.0,5.0,73,0.00,,,0.00,Wunderground v.1.15,2013-05-17 14:58:00,
2013-05-17 10:03:00,71.6,62.1,29.45,South,180,0.0,5.0,72,0.00,,,0.00,Wunderground v.1.15,2013-05-17 15:03:00,
2013-05-17 10:08:00,72.0,62.5,29.45,South,180,0.0,5.0,72,0.00,,,0.00,Wunderground v.1.15,2013-05-17 15:08:00,
2013-05-17 10:13:00,72.3,62.4,29.45,South,180,0.0,5.0,71,0.00,,,0.00,Wunderground v.1.15,2013-05-17 15:13:00,
2013-05-17 10:18:00,-999.9,-99.9,29.45,South,180,0.0,6.0,72,0.00,,,0.00,Wunderground v.1.15,2013-05-17 15:18:00,
2013-05-17 10:23:00,72.1,62.6,29.45,South,180,0.0,2.0,72,0.00,,,0.00,Wunderground v.1.15,2013-05-17 15:23:00,
2013-05-17 10:28:00,72.4,63.3,29.45,South,180,0.0,2.0,73,0.00,,,0.00,Wunderground v.1.15,2013-05-17 15:28:00,
2013-05-17 10:33:00,72.5,63.4,29.45,South,180,5.0,5.0,73,0.00,,,0.00,Wunderground v.1.15,2013-05-17 15:33:00,
2013-05-17 10:38:00,72.5,63.7,29.46,South,180,0.0,5.0,74,0.00,,,0.00,Wunderground v.1.15,2013-05-17 15:38:00,
2013-05-17 10:44:00,72.4,63.3,29.46,South,180,0.0,1.0,73,0.00,,,0.00,Wunderground v.1.15,2013-05-17 15:44:00,
2013-05-17 10:49:00,72.5,63.0,29.46,South,180,0.0,3.0,72,0.00,,,0.00,Wunderground v.1.15,2013-05-17 15:49:00,
2013-05-17 10:54:00,72.6,63.1,29.46,South,180,0.0,3.0,72,0.00,,,0.00,Wunderground v.1.15,2013-05-17 15:54:00,
2013-05-17 10:59:00,72.6,63.1,29.46,South,180,0.0,5.0,72,0.00,,,0.00,Wunderground v.1.15,2013-05-17 15:59:00,
2013-05-17 11:04:00,-999.9,-99.9,29.46,South,180,0.0,8.0,71,0.00,,,0.00,Wunderground v.1.15,2013-05-17 16:04:00,
2013-05-17 11:09:00,72.1,63.0,29.47,South,180,0.0,8.0,73,0.00,,,0.00,Wunderground v.1.15,2013-05-17 16:09:00,
2013-05-17 11:14:00,71.9,63.2,29.46,South,180,1.0,4.0,74,0.00,,,0.00,Wunderground v.1.15,2013-05-17 16:14:00,
2013-05-17 11:19:00,71.9,63.2,29.46,South,180,0.0,4.0,74,0.00,,,0.00,Wunderground v.1.15,2013-05-17 16:19:00,
2013-05-17 11:24:00,72.0,63.6,29.46,South,180,0.0,4.0,75,0.00,,,0.00,Wunderground v.1.15,2013-05-17 16:24:00,
2013-05-17 11:29:00,-999.9,-99.9,29.46,South,180,0.0,4.0,74,0.00,,,0.00,Wunderground v.1.15,2013-05-17 16:29:00,
2013-05-17 11:34:00,72.5,63.4,29.46,South,180,0.0,6.0,73,0.00,,,0.00,Wunderground v.1.15,2013-05-17 16:34:00,
2013-05-17 11:39:00,72.7,63.5,29.46,South,180,0.0,6.0,73,0.00,,,0.00,Wunderground v.1.15,2013-05-17 16:39:00,
2013-05-17 11:44:00,72.6,63.4,29.46,South,180,0.0,6.0,73,0.00,,,0.00,Wunderground v.1.15,2013-05-17 16:44:00,
2013-05-17 11:49:00,72.7,63.9,29.45,South,180,0.0,6.0,74,0.00,,,0.00,Wunderground v.1.15,2013-05-17 16:49:00,
2013-05-17 11:54:00,73.3,65.3,29.45,South,180,3.0,6.0,76,0.00,,,0.00,Wunderground v.1.15,2013-05-17 16:54:00,
2013-05-17 11:59:00,74.1,64.5,29.45,South,175,10.0,10.0,72,0.00,,,0.00,Wunderground v.1.15,2013-05-17 16:59:00,
2013-05-17 12:04:00,74.3,63.9,29.45,South,173,0.0,7.0,70,0.00,,,0.00,Wunderground v.1.15,2013-05-17 17:04:00,
2013-05-17 12:09:00,74.4,64.8,29.45,South,170,0.0,8.0,72,0.00,,,0.00,Wunderground v.1.15,2013-05-17 17:09:00,
2013-05-17 12:14:00,74.6,64.6,29.45,South,170,4.0,5.0,71,0.00,,,0.00,Wunderground v.1.15,2013-05-17 17:14:00,
2013-05-17 12:19:00,74.2,63.4,29.45,South,170,5.0,8.0,69,0.00,,,0.00,Wunderground v.1.15,2013-05-17 17:19:00,
2013-05-17 12:24:00,74.0,63.6,29.45,South,170,0.0,6.0,70,0.00,,,0.00,Wunderground v.1.15,2013-05-17 17:24:00,
2013-05-17 12:29:00,74.1,63.7,29.45,South,170,6.0,6.0,70,0.00,,,0.00,Wunderground v.1.15,2013-05-17 17:29:00,
2013-05-17 12:34:00,74.2,64.6,29.44,South,170,0.0,5.0,72,0.00,,,0.00,Wunderground v.1.15,2013-05-17 17:34:00,
2013-05-17 12:39:00,-999.9,-99.9,29.44,South,170,0.0,5.0,70,0.00,,,0.00,Wunderground v.1.15,2013-05-17 17:39:00,
2013-05-17 12:44:00,74.7,63.9,29.44,South,170,4.0,6.0,69,0.00,,,0.00,Wunderground v.1.15,2013-05-17 17:44:00,
2013-05-17 12:49:00,74.6,63.8,29.44,South,170,0.0,6.0,69,0.00,,,0.00,Wunderground v.1.15,2013-05-17 17:49:00,
2013-05-17 12:54:00,74.6,64.2,29.44,South,170,1.0,2.0,70,0.00,,,0.00,Wunderground v.1.15,2013-05-17 17:54:00,
2013-05-17 12:59:00,75.0,64.5,29.44,SSE,168,0.0,7.0,70,0.00,,,0.00,Wunderground v.1.15,2013-05-17 17:59:00,
2013-05-17 13:04:00,75.3,64.4,29.44,SSE,168,0.0,6.0,69,0.00,,,0.00,Wunderground v.1.15,2013-05-17 18:04:00,
2013-05-17 13:09:00,75.4,64.5,29.44,SSE,168,0.0,7.0,69,0.00,,,0.00,Wunderground v.1.15,2013-05-17 18:09:00,
2013-05-17 13:14:00,75.5,65.0,29.43,SSE,168,0.0,4.0,70,0.00,,,0.00,Wunderground v.1.15,2013-05-17 18:14:00,
2013-05-17 13:19:00,75.7,64.8,29.43,SSE,168,0.0,7.0,69,0.00,,,0.00,Wunderground v.1.15,2013-05-17 18:19:00,
2013-05-17 13:24:00,76.0,65.1,29.43,SSE,168,0.0,7.0,69,0.00,,,0.00,Wunderground v.1.15,2013-05-17 18:24:00,
2013-05-17 13:29:00,76.1,66.0,29.43,SSE,167,4.0,9.0,71,0.00,,,0.00,Wunderground v.1.15,2013-05-17 18:29:00,
2013-05-17 13:34:00,-999.9,-99.9,29.43,SSE,167,4.0,7.0,69,0.00,,,0.00,Wunderground v.1.15,2013-05-17 18:34:00,
2013-05-17 13:39:00,75.7,64.4,29.43,SSE,167,0.0,7.0,68,0.00,,,0.00,Wunderground v.1.15,2013-05-17 18:39:00,
2013-05-17 13:44:00,76.4,-99.9,29.43,SSE,167,0.0,6.0,255,0.00,,,0.00,Wunderground v.1.15,2013-05-17 18:44:00,
2013-05-17 13:49:00,75.8,64.1,29.43,SSE,167,0.0,7.0,67,0.00,,,0.00,Wunderground v.1.15,2013-05-17 18:49:00,
2013-05-17 13:54:00,75.4,64.5,29.43,SSE,167,1.0,7.0,69,0.00,,,0.00,Wunderground v.1.15,2013-05-17 18:54:00,
2013-05-17 13:59:00,74.9,64.5,29.43,SSE,167,0.0,7.0,70,0.00,,,0.00,Wunderground v.1.15,2013-05-17 18:59:00,
2013-05-17 14:04:00,74.7,65.1,29.43,SSE,167,0.0,4.0,72,0.00,,,0.00,Wunderground v.1.15,2013-05-17 19:04:00,
2013-05-17 14:09:00,74.5,64.5,29.43,SSE,167,0.0,6.0,71,0.00,,,0.00,Wunderground v.1.15,2013-05-17 19:09:00,
2013-05-17 14:14:00,74.6,64.6,29.43,SSE,167,0.0,4.0,71,0.00,,,0.00,Wunderground v.1.15,2013-05-17 19:14:00,
2013-05-17 14:19:00,74.3,-99.9,29.43,SSE,167,0.0,4.0,255,0.00,,,0.00,Wunderground v.1.15,2013-05-17 19:19:00,
2013-05-17 14:24:00,74.1,65.3,29.43,SSE,167,0.0,1.0,74,0.00,,,0.00,Wunderground v.1.15,2013-05-17 19:24:00,
2013-05-17 14:29:00,74.2,65.4,29.43,SSE,167,0.0,1.0,74,0.00,,,0.00,Wunderground v.1.15,2013-05-17 19:29:00,
2013-05-17 14:34:00,74.0,-99.9,29.43,SSE,167,0.0,1.0,255,0.00,,,0.00,Wunderground v.1.15,2013-05-17 19:34:00,
2013-05-17 14:40:00,73.9,66.2,29.43,SSE,167,0.0,0.0,77,0.00,,,0.00,Wunderground v.1.15,2013-05-17 19:40:00,
2013-05-17 14:45:00,73.7,65.3,29.43,SSE,167,1.0,6.0,75,0.00,,,0.00,Wunderground v.1.15,2013-05-17 19:45:00,
2013-05-17 14:50:00,73.5,64.7,29.43,SSE,167,0.0,1.0,74,0.00,,,0.00,Wunderground v.1.15,2013-05-17 19:50:00,
2013-05-17 14:55:00,73.4,64.6,29.43,SSE,167,0.0,6.0,74,0.00,,,0.00,Wunderground v.1.15,2013-05-17 19:55:00,
2013-05-17 15:00:00,73.4,65.0,29.42,SSE,167,0.0,1.0,75,0.00,,,0.00,Wunderground v.1.15,2013-05-17 20:00:00,
2013-05-17 15:05:00,73.5,65.1,29.43,SSE,167,4.0,8.0,75,0.00,,,0.00,Wunderground v.1.15,2013-05-17 20:05:00,
2013-05-17 15:10:00,73.9,64.7,29.42,SSE,167,0.0,1.0,73,0.00,,,0.00,Wunderground v.1.15,2013-05-17 20:10:00,
2013-05-17 15:15:00,-999.9,-99.9,29.42,SSE,167,0.0,1.0,255,0.00,,,0.00,Wunderground v.1.15,2013-05-17 20:15:00,
2013-05-17 15:20:00,74.1,64.5,29.42,SSE,167,0.0,0.0,72,0.00,,,0.00,Wunderground v.1.15,2013-05-17 20:20:00,
2013-05-17 15:25:00,74.1,65.3,29.42,SSE,167,0.0,1.0,74,0.00,,,0.00,Wunderground v.1.15,2013-05-17 20:25:00,
2013-05-17 15:30:00,74.0,65.2,29.42,SSE,167,0.0,1.0,74,0.00,,,0.00,Wunderground v.1.15,2013-05-17 20:30:00,
2013-05-17 15:35:00,74.0,65.2,29.42,SSE,167,0.0,4.0,74,0.00,,,0.00,Wunderground v.1.15,2013-05-17 20:35:00,
2013-05-17 15:40:00,74.0,65.2,29.42,SSE,167,0.0,0.0,74,0.00,,,0.00,Wunderground v.1.15,2013-05-17 20:40:00,
2013-05-17 15:45:00,74.0,66.0,29.42,SSE,167,0.0,0.0,76,0.00,,,0.00,Wunderground v.1.15,2013-05-17 20:45:00,
2013-05-17 15:50:00,74.2,65.4,29.42,SSE,167,0.0,0.0,74,0.00,,,0.00,Wunderground v.1.15,2013-05-17 20:50:00,
2013-05-17 15:55:00,74.6,65.8,29.42,SSE,167,0.0,1.0,74,0.00,,,0.00,Wunderground v.1.15,2013-05-17 20:55:00,
2013-05-17 16:00:00,75.0,66.5,29.42,SSE,167,0.0,0.0,75,0.00,,,0.00,Wunderground v.1.15,2013-05-17 21:00:00,
2013-05-17 16:05:00,74.9,65.7,29.42,SSE,167,0.0,2.0,73,0.00,,,0.00,Wunderground v.1.15,2013-05-17 21:05:00,
2013-05-17 16:10:00,74.7,65.9,29.42,SSE,167,2.0,4.0,74,0.00,,,0.00,Wunderground v.1.15,2013-05-17 21:10:00,
2013-05-17 16:15:00,74.4,66.0,29.42,SSE,167,0.0,4.0,75,0.00,,,0.00,Wunderground v.1.15,2013-05-17 21:15:00,
2013-05-17 16:20:00,74.1,66.0,29.42,SSE,167,0.0,0.0,76,0.00,,,0.00,Wunderground v.1.15,2013-05-17 21:20:00,
2013-05-17 16:25:00,73.8,-99.9,29.42,SSE,167,0.0,4.0,255,0.00,,,0.00,Wunderground v.1.15,2013-05-17 21:25:00,
2013-05-17 16:30:00,73.3,65.3,29.42,SSE,167,0.0,0.0,76,0.00,,,0.00,Wunderground v.1.15,2013-05-17 21:30:00,
2013-05-17 16:35:00,73.2,65.6,29.41,SSE,167,0.0,0.0,77,0.00,,,0.00,Wunderground v.1.15,2013-05-17 21:35:00,
2013-05-17 16:40:00,73.2,65.6,29.41,SSE,167,0.0,0.0,77,0.00,,,0.00,Wunderground v.1.15,2013-05-17 21:40:00,
2013-05-17 16:45:00,73.2,65.2,29.41,SSE,167,0.0,5.0,76,0.00,,,0.00,Wunderground v.1.15,2013-05-17 21:45:00,
2013-05-17 16:50:00,73.6,65.6,29.41,SSE,167,0.0,0.0,76,0.00,,,0.00,Wunderground v.1.15,2013-05-17 21:50:00,
2013-05-17 16:55:00,73.8,65.4,29.41,SSE,167,0.0,5.0,75,0.00,,,0.00,Wunderground v.1.15,2013-05-17 21:55:00,
2013-05-17 17:00:00,73.8,65.0,29.41,SSE,167,5.0,6.0,74,0.00,,,0.00,Wunderground v.1.15,2013-05-17 22:00:00,
2013-05-17 17:05:00,73.5,64.7,29.41,SSE,167,0.0,8.0,74,0.00,,,0.00,Wunderground v.1.15,2013-05-17 22:05:00,
2013-05-17 17:10:00,73.2,65.2,29.41,SSE,167,0.0,4.0,76,0.00,,,0.00,Wunderground v.1.15,2013-05-17 22:10:00,
2013-05-17 17:15:00,72.9,65.3,29.41,SSE,167,0.0,5.0,77,0.00,,,0.00,Wunderground v.1.15,2013-05-17 22:15:00,
2013-05-17 17:20:00,72.8,65.5,29.41,SSE,167,0.0,1.0,78,0.00,,,0.00,Wunderground v.1.15,2013-05-17 22:20:00,
2013-05-17 17:25:00,72.5,65.6,29.41,SSE,167,0.0,1.0,79,0.00,,,0.00,Wunderground v.1.15,2013-05-17 22:25:00,
2013-05-17 17:30:00,72.3,65.8,29.41,SSE,167,0.0,0.0,80,0.00,,,0.00,Wunderground v.1.15,2013-05-17 22:30:00,
2013-05-17 17:35:00,72.3,65.4,29.41,SSE,167,0.0,2.0,79,0.00,,,0.00,Wunderground v.1.15,2013-05-17 22:35:00,
2013-05-17 17:40:00,72.4,65.2,29.41,SSE,167,0.0,0.0,78,0.00,,,0.00,Wunderground v.1.15,2013-05-17 22:40:00,
2013-05-17 17:45:00,72.7,65.1,29.40,SSE,167,0.0,1.0,77,0.00,,,0.00,Wunderground v.1.15,2013-05-17 22:45:00,
2013-05-17 17:50:00,73.1,65.1,29.40,SSE,167,0.0,6.0,76,0.00,,,0.00,Wunderground v.1.15,2013-05-17 22:50:00,
2013-05-17 17:55:00,73.7,65.7,29.41,SSE,167,0.0,6.0,76,0.00,,,0.00,Wunderground v.1.15,2013-05-17 22:55:00,
2013-05-17 18:00:00,74.3,65.9,29.41,SSE,167,0.0,2.0,75,0.00,,,0.00,Wunderground v.1.15,2013-05-17 23:00:00,
2013-05-17 18:05:00,74.9,66.4,29.41,SSE,167,0.0,7.0,75,0.00,,,0.00,Wunderground v.1.15,2013-05-17 23:05:00,
2013-05-17 18:10:00,75.5,66.2,29.41,SSE,167,0.0,1.0,73,0.00,,,0.00,Wunderground v.1.15,2013-05-17 23:10:00,
2013-05-17 18:15:00,75.8,65.7,29.41,SSE,167,0.0,5.0,71,0.00,,,0.00,Wunderground v.1.15,2013-05-17 23:15:00,
2013-05-17 18:20:00,76.0,65.5,29.41,SSE,167,0.0,1.0,70,0.00,,,0.00,Wunderground v.1.15,2013-05-17 23:20:00,
2013-05-17 18:25:00,76.3,66.2,29.40,SSE,167,0.0,4.0,71,0.00,,,0.00,Wunderground v.1.15,2013-05-17 23:25:00,
2013-05-17 18:30:00,76.5,66.4,29.40,SSE,167,0.0,2.0,71,0.00,,,0.00,Wunderground v.1.15,2013-05-17 23:30:00,
2013-05-17 18:35:00,76.4,-99.9,29.40,SSE,167,0.0,6.0,255,0.00,,,0.00,Wunderground v.1.15,2013-05-17 23:35:00,
2013-05-17 18:40:00,-999.9,-99.9,29.40,SSE,167,1.0,4.0,69,0.00,,,0.00,Wunderground v.1.15,2013-05-17 23:40:00,
2013-05-17 18:45:00,75.8,65.3,29.40,SSE,167,0.0,4.0,70,0.00,,,0.00,Wunderground v.1.15,2013-05-17 23:45:00,
2013-05-17 18:50:00,75.3,65.6,29.41,SSE,167,0.0,5.0,72,0.00,,,0.00,Wunderground v.1.15,2013-05-17 23:50:00,
2013-05-17 18:55:00,75.2,65.6,29.40,SSE,167,0.0,5.0,72,0.00,,,0.00,Wunderground v.1.15,2013-05-17 23:55:00,
2013-05-17 19:00:00,75.1,-99.9,29.41,SSE,167,1.0,4.0,255,0.00,,,0.00,Wunderground v.1.15,2013-05-18 00:00:00,
2013-05-17 19:05:00,75.3,64.8,29.41,SSE,167,1.0,8.0,70,0.00,,,0.00,Wunderground v.1.15,2013-05-18 00:05:00,
2013-05-17 19:10:00,74.9,65.3,29.41,SSE,167,4.0,5.0,72,0.00,,,0.00,Wunderground v.1.15,2013-05-18 00:10:00,
2013-05-17 19:15:00,74.8,65.2,29.41,SSE,167,0.0,7.0,72,0.00,,,0.00,Wunderground v.1.15,2013-05-18 00:15:00,
2013-05-17 19:20:00,74.6,65.0,29.41,SSE,167,0.0,1.0,72,0.00,,,0.00,Wunderground v.1.15,2013-05-18 00:20:00,
2013-05-17 19:25:00,74.3,65.1,29.41,SSE,167,0.0,7.0,73,0.00,,,0.00,Wunderground v.1.15,2013-05-18 00:25:00,
2013-05-17 19:30:00,74.2,65.4,29.41,SSE,167,6.0,6.0,74,0.00,,,0.00,Wunderground v.1.15,2013-05-18 00:30:00,
2013-05-17 19:35:00,74.1,65.3,29.42,SSE,167,0.0,7.0,74,0.00,,,0.00,Wunderground v.1.15,2013-05-18 00:35:00,
2013-05-17 19:40:00,74.0,65.2,29.42,SSE,167,0.0,0.0,74,0.00,,,0.00,Wunderground v.1.15,2013-05-18 00:40:00,
2013-05-17 19:45:00,73.8,65.0,29.41,SSE,167,0.0,2.0,74,0.00,,,0.00,Wunderground v.1.15,2013-05-18 00:45:00,
2013-05-17 19:50:00,73.6,65.2,29.41,SSE,167,0.0,0.0,75,0.00,,,0.00,Wunderground v.1.15,2013-05-18 00:50:00,
2013-05-17 19:55:00,73.3,64.5,29.41,SSE,167,0.0,1.0,74,0.00,,,0.00,Wunderground v.1.15,2013-05-18 00:55:00,
2013-05-17 20:00:00,73.0,64.6,29.41,SSE,167,0.0,0.0,75,0.00,,,0.00,Wunderground v.1.15,2013-05-18 01:00:00,
2013-05-17 20:05:00,73.0,64.2,29.41,SSE,167,0.0,1.0,74,0.00,,,0.00,Wunderground v.1.15,2013-05-18 01:05:00,
2013-05-17 20:10:00,72.6,64.2,29.41,SSE,167,0.0,0.0,75,0.00,,,0.00,Wunderground v.1.15,2013-05-18 01:10:00,
2013-05-17 20:15:00,72.4,64.0,29.42,SSE,167,0.0,0.0,75,0.00,,,0.00,Wunderground v.1.15,2013-05-18 01:15:00,
2013-05-17 20:20:00,-999.9,-99.9,29.42,SSE,167,0.0,0.0,76,0.00,,,0.00,Wunderground v.1.15,2013-05-18 01:20:00,
2013-05-17 20:25:00,71.7,63.7,29.42,SSE,167,0.0,0.0,76,0.00,,,0.00,Wunderground v.1.15,2013-05-18 01:25:00,
2013-05-17 20:30:00,71.4,63.8,29.42,SSE,167,0.0,0.0,77,0.00,,,0.00,Wunderground v.1.15,2013-05-18 01:30:00,
2013-05-17 20:35:00,71.2,-99.9,29.42,SSE,167,0.0,0.0,255,0.00,,,0.00,Wunderground v.1.15,2013-05-18 01:35:00,
2013-05-17 20:41:00,70.9,63.3,29.42,SSE,167,0.0,0.0,77,0.00,,,0.00,Wunderground v.1.15,2013-05-18 01:41:00,
2013-05-17 20:46:00,70.7,63.5,29.42,SSE,167,0.0,0.0,78,0.00,,,0.00,Wunderground v.1.15,2013-05-18 01:46:00,
2013-05-17 20:51:00,70.4,63.2,29.42,SSE,167,0.0,0.0,78,0.00,,,0.00,Wunderground v.1.15,2013-05-18 01:51:00,
2013-05-17 20:56:00,70.6,63.4,29.43,SSE,167,0.0,2.0,78,0.00,,,0.00,Wunderground v.1.15,2013-05-18 01:56:00,
2013-05-17 21:01:00,69.9,62.7,29.43,SSE,167,0.0,0.0,78,0.00,,,0.00,Wunderground v.1.15,2013-05-18 02:01:00,
2013-05-17 21:06:00,69.7,62.9,29.43,SSE,167,0.0,0.0,79,0.00,,,0.00,Wunderground v.1.15,2013-05-18 02:06:00,
2013-05-17 21:11:00,69.4,62.6,29.44,SSE,167,0.0,4.0,79,0.00,,,0.00,Wunderground v.1.15,2013-05-18 02:11:00,
2013-05-17 21:16:00,69.2,62.4,29.43,SSE,167,0.0,4.0,79,0.00,,,0.00,Wunderground v.1.15,2013-05-18 02:16:00,
2013-05-17 21:21:00,69.0,62.6,29.44,SSE,167,0.0,0.0,80,0.00,,,0.00,Wunderground v.1.15,2013-05-18 02:21:00,
2013-05-17 21:26:00,68.8,62.4,29.44,SSE,167,0.0,4.0,80,0.00,,,0.00,Wunderground v.1.15,2013-05-18 02:26:00,
2013-05-17 21:31:00,68.7,62.3,29.44,SSE,167,0.0,2.0,80,0.00,,,0.00,Wunderground v.1.15,2013-05-18 02:31:00,
2013-05-17 21:36:00,68.6,62.5,29.44,SSE,167,0.0,2.0,81,0.00,,,0.00,Wunderground v.1.15,2013-05-18 02:36:00,
2013-05-17 21:41:00,68.5,62.8,29.44,SSE,167,0.0,1.0,82,0.00,,,0.00,Wunderground v.1.15,2013-05-18 02:41:00,
2013-05-17 21:46:00,68.4,62.7,29.44,SSE,167,0.0,4.0,82,0.00,,,0.00,Wunderground v.1.15,2013-05-18 02:46:00,
2013-05-17 21:51:00,-999.9,-99.9,29.45,SSE,167,0.0,2.0,83,0.00,,,0.00,Wunderground v.1.15,2013-05-18 02:51:00,
2013-05-17 21:56:00,68.4,63.0,29.45,SSE,167,2.0,2.0,83,0.00,,,0.00,Wunderground v.1.15,2013-05-18 02:56:00,
2013-05-17 22:01:00,68.4,63.4,29.44,SSE,167,0.0,0.0,84,0.00,,,0.00,Wunderground v.1.15,2013-05-18 03:01:00,
2013-05-17 22:06:00,68.3,63.3,29.45,SSE,167,0.0,4.0,84,0.00,,,0.00,Wunderground v.1.15,2013-05-18 03:06:00,
2013-05-17 22:11:00,68.4,63.4,29.45,SSE,167,0.0,0.0,84,0.00,,,0.00,Wunderground v.1.15,2013-05-18 03:11:00,
2013-05-17 22:16:00,68.3,63.3,29.45,SSE,167,0.0,1.0,84,0.00,,,0.00,Wunderground v.1.15,2013-05-18 03:16:00,
2013-05-17 22:21:00,68.2,63.2,29.45,SSE,167,0.0,0.0,84,0.00,,,0.00,Wunderground v.1.15,2013-05-18 03:21:00,
2013-05-17 22:26:00,68.3,63.3,29.45,SSE,167,0.0,1.0,84,0.00,,,0.00,Wunderground v.1.15,2013-05-18 03:26:00,
2013-05-17 22:31:00,68.3,63.3,29.45,SSE,166,0.0,1.0,84,0.00,,,0.00,Wunderground v.1.15,2013-05-18 03:31:00,
2013-05-17 22:36:00,68.2,63.2,29.45,SSE,167,0.0,1.0,84,0.00,,,0.00,Wunderground v.1.15,2013-05-18 03:36:00,
2013-05-17 22:41:00,68.1,63.4,29.45,SSE,167,0.0,2.0,85,0.00,,,0.00,Wunderground v.1.15,2013-05-18 03:41:00,
2013-05-17 22:46:00,68.0,63.3,29.45,SSE,167,0.0,2.0,85,0.00,,,0.00,Wunderground v.1.15,2013-05-18 03:46:00,
2013-05-17 22:51:00,67.9,63.2,29.45,SSE,167,0.0,0.0,85,0.00,,,0.00,Wunderground v.1.15,2013-05-18 03:51:00,
2013-05-17 22:56:00,67.8,63.1,29.45,SSE,167,0.0,2.0,85,0.00,,,0.00,Wunderground v.1.15,2013-05-18 03:56:00,
2013-05-17 23:01:00,67.7,63.0,29.45,SSE,167,0.0,0.0,85,0.00,,,0.00,Wunderground v.1.15,2013-05-18 04:01:00,
2013-05-17 23:06:00,67.7,63.4,29.45,SSE,167,0.0,0.0,86,0.00,,,0.00,Wunderground v.1.15,2013-05-18 04:06:00,
2013-05-17 23:11:00,67.6,62.9,29.45,SSE,167,0.0,0.0,85,0.00,,,0.00,Wunderground v.1.15,2013-05-18 04:11:00,
2013-05-17 23:16:00,67.6,63.3,29.44,SSE,167,0.0,0.0,86,0.00,,,0.00,Wunderground v.1.15,2013-05-18 04:16:00,
2013-05-17 23:21:00,67.5,63.2,29.45,SSE,167,0.0,0.0,86,0.00,,,0.00,Wunderground v.1.15,2013-05-18 04:21:00,
2013-05-17 23:26:00,67.4,-99.9,29.45,SSE,167,0.0,0.0,255,0.00,,,0.00,Wunderground v.1.15,2013-05-18 04:26:00,
2013-05-17 23:31:00,67.3,63.3,29.45,SSE,167,0.0,0.0,87,0.00,,,0.00,Wunderground v.1.15,2013-05-18 04:31:00,
2013-05-17 23:36:00,67.2,63.2,29.45,SSE,166,0.0,0.0,87,0.00,,,0.00,Wunderground v.1.15,2013-05-18 04:36:00,
2013-05-17 23:41:00,67.1,63.1,29.45,SSE,167,0.0,1.0,87,0.00,,,0.00,Wunderground v.1.15,2013-05-18 04:41:00,
2013-05-17 23:46:00,67.1,63.4,29.45,SSE,167,0.0,1.0,88,0.00,,,0.00,Wunderground v.1.15,2013-05-18 04:46:00,
2013-05-17 23:51:00,67.0,63.3,29.45,SSE,167,0.0,0.0,88,0.00,,,0.00,Wunderground v.1.15,2013-05-18 04:51:00,
2013-05-17 23:56:00,66.8,63.1,29.45,SSE,167,0.0,0.0,88,0.00,,,0.00,Wunderground v.1.15,2013-05-18 04:56:00,